• In Hungary
  • List of Countries
  • For 7 days
  • Water Temperature
  • Satellite Maps
  • Weather Map
  • News
  • Weather Widgets
  • user-avatar
    Login

    Hourly Weather Bekescsaba

    Today, 22 October, Sunday

    Time Temperature Precipitation Wind Pressure Humidity
    00:00 +14°C° 0 mm 1 mps 755 mmHg 66%
    01:00 +14°C° 0 mm 1 mps 754 mmHg 74%
    02:00 +13°C° 0 mm 1 mps 754 mmHg 77%
    03:00 +13°C° 0 mm 1 mps 754 mmHg 80%
    04:00 +13°C° 0 mm 1 mps 755 mmHg 83%
    05:00 +13°C° 0 mm 1 mps 755 mmHg 83%
    06:00 +13°C° 0 mm 1 mps 754 mmHg 82%
    07:00 +13°C° 0 mm 1 mps 754 mmHg 82%
    08:00 +14°C° 0 mm 1 mps 754 mmHg 76%
    09:00 +16°C° 0 mm 1 mps 754 mmHg 69%
    10:00 +18°C° 0 mm 1 mps 754 mmHg 62%
    11:00 +19°C° 0 mm 1 mps 754 mmHg 58%
    12:00 +20°C° 0 mm 1 mps 753 mmHg 54%
    13:00 +21°C° 0 mm 1 mps 753 mmHg 51%
    14:00 +21°C° 0 mm 1 mps 752 mmHg 52%
    15:00 +20°C° 0 mm 1 mps 752 mmHg 53%
    16:00 +20°C° 0 mm 1 mps 751 mmHg 54%
    17:00 +19°C° 0 mm 1 mps 751 mmHg 56%
    18:00 +17°C° 0 mm 2 mps 750 mmHg 59%
    19:00 +17°C° 0 mm 2 mps 750 mmHg 61%
    20:00 +16°C° 0.1 mm 3 mps 750 mmHg 63%
    21:00 +16°C° 0.1 mm 3 mps 750 mmHg 65%
    22:00 +16°C° 0.1 mm 3 mps 749 mmHg 67%
    23:00 +15°C° 0.7 mm 2 mps 749 mmHg 70%

    Tomorrow, 23 October, Monday

    Time Temperature Precipitation Wind Pressure Humidity
    00:00 +15°C° 0.7 mm 2 mps 749 mmHg 73%
    01:00 +15°C° 0.7 mm 2 mps 748 mmHg 77%
    02:00 +14°C° 2 mm 2 mps 748 mmHg 80%
    03:00 +14°C° 2 mm 2 mps 747 mmHg 83%
    04:00 +13°C° 2 mm 3 mps 746 mmHg 86%
    05:00 +12°C° 3.3 mm 3 mps 746 mmHg 88%
    06:00 +12°C° 3.3 mm 3 mps 746 mmHg 89%
    07:00 +12°C° 3.3 mm 3 mps 746 mmHg 90%
    08:00 +12°C° 1.1 mm 4 mps 746 mmHg 90%
    09:00 +12°C° 1.1 mm 4 mps 746 mmHg 89%
    10:00 +12°C° 1.1 mm 4 mps 746 mmHg 88%
    11:00 +12°C° 0.5 mm 4 mps 746 mmHg 88%
    12:00 +12°C° 0.5 mm 5 mps 746 mmHg 87%
    13:00 +12°C° 0.5 mm 5 mps 746 mmHg 86%
    14:00 +12°C° 0.5 mm 5 mps 746 mmHg 86%
    15:00 +12°C° 0.5 mm 5 mps 747 mmHg 86%
    16:00 +10°C° 0.5 mm 5 mps 747 mmHg 86%
    17:00 +10°C° 0.4 mm 5 mps 747 mmHg 86%
    18:00 +10°C° 0.4 mm 5 mps 747 mmHg 86%
    19:00 +11°C° 0.4 mm 4 mps 748 mmHg 86%
    20:00 +11°C° 0.2 mm 4 mps 748 mmHg 86%
    21:00 +11°C° 0.2 mm 4 mps 748 mmHg 86%
    22:00 +11°C° 0.2 mm 4 mps 748 mmHg 86%
    23:00 +11°C° 0.1 mm 4 mps 748 mmHg 86%

    Day after tomorrow, 24 October, Tuesday

    Time Temperature Precipitation Wind Pressure Humidity
    00:00 +11°C° 0.1 mm 4 mps 749 mmHg 86%
    01:00 +9°C° 0.1 mm 5 mps 749 mmHg 86%
    02:00 +9°C° 0.1 mm 5 mps 749 mmHg 85%
    03:00 +9°C° 0.1 mm 5 mps 749 mmHg 84%
    04:00 +9°C° 0.1 mm 6 mps 749 mmHg 83%
    05:00 +9°C° 0.2 mm 6 mps 749 mmHg 82%
    06:00 +9°C° 0.2 mm 7 mps 750 mmHg 81%
    07:00 +9°C° 0.2 mm 7 mps 750 mmHg 79%
    08:00 +10°C° 0 mm 8 mps 751 mmHg 76%
    09:00 +10°C° 0 mm 8 mps 751 mmHg 72%
    10:00 +11°C° 0 mm 9 mps 751 mmHg 68%
    11:00 +12°C° 0 mm 9 mps 751 mmHg 65%
    12:00 +13°C° 0 mm 9 mps 752 mmHg 63%
    13:00 +15°C° 0 mm 9 mps 752 mmHg 60%
    14:00 +13°C° 0 mm 8 mps 752 mmHg 61%
    15:00 +13°C° 0 mm 8 mps 753 mmHg 62%
    16:00 +12°C° 0 mm 8 mps 753 mmHg 64%
    17:00 +11°C° 0 mm 8 mps 754 mmHg 66%
    18:00 +10°C° 0 mm 7 mps 755 mmHg 68%
    19:00 +9°C° 0 mm 7 mps 756 mmHg 70%
    20:00 +9°C° 0 mm 7 mps 756 mmHg 71%
    21:00 +9°C° 0 mm 6 mps 757 mmHg 72%
    22:00 +8°C° 0 mm 6 mps 757 mmHg 73%
    23:00 +8°C° 0 mm 5 mps 758 mmHg 74%

    25 October, Wednesday

    Time Temperature Precipitation Wind Pressure Humidity
    00:00 +7°C° 0 mm 5 mps 758 mmHg 75%
    01:00 +7°C° 0 mm 4 mps 758 mmHg 76%
    02:00 +7°C° 0 mm 4 mps 759 mmHg 77%
    03:00 +7°C° 0 mm 4 mps 759 mmHg 78%
    04:00 +6°C° 0 mm 4 mps 759 mmHg 79%
    05:00 +6°C° 0 mm 4 mps 759 mmHg 79%
    06:00 +6°C° 0 mm 4 mps 760 mmHg 79%
    07:00 +7°C° 0 mm 3 mps 760 mmHg 79%
    08:00 +8°C° 0 mm 3 mps 760 mmHg 73%
    09:00 +10°C° 0 mm 3 mps 760 mmHg 67%
    10:00 +12°C° 0 mm 2 mps 761 mmHg 61%
    11:00 +13°C° 0 mm 2 mps 761 mmHg 58%
    12:00 +14°C° 0 mm 3 mps 761 mmHg 55%
    13:00 +16°C° 0 mm 3 mps 761 mmHg 51%
    14:00 +15°C° 0 mm 2 mps 761 mmHg 53%
    15:00 +15°C° 0 mm 2 mps 761 mmHg 55%
    16:00 +14°C° 0 mm 1 mps 761 mmHg 57%
    17:00 +13°C° 0 mm 1 mps 761 mmHg 60%
    18:00 +12°C° 0 mm 1 mps 761 mmHg 62%
    19:00 +10°C° 0 mm 0 mps 761 mmHg 65%
    20:00 +11°C° 0 mm 1 mps 762 mmHg 66%
    21:00 +11°C° 0 mm 1 mps 762 mmHg 66%
    22:00 +11°C° 0 mm 1 mps 762 mmHg 67%
    23:00 +10°C° 0 mm 1 mps 762 mmHg 68%

    26 October, Thursday

    Time Temperature Precipitation Wind Pressure Humidity
    00:00 +10°C° 0 mm 1 mps 762 mmHg 69%
    01:00 +9°C° 0 mm 2 mps 762 mmHg 71%
    02:00 +9°C° 0 mm 2 mps 762 mmHg 71%
    03:00 +9°C° 0 mm 2 mps 762 mmHg 72%
    04:00 +8°C° 0 mm 2 mps 762 mmHg 73%
    05:00 +9°C° 0 mm 2 mps 762 mmHg 73%
    06:00 +9°C° 0 mm 3 mps 762 mmHg 73%
    07:00 +9°C° 0 mm 3 mps 763 mmHg 73%
    08:00 +10°C° 0 mm 3 mps 763 mmHg 69%
    09:00 +12°C° 0 mm 4 mps 763 mmHg 65%
    10:00 +13°C° 0 mm 4 mps 763 mmHg 61%
    11:00 +14°C° 0 mm 4 mps 762 mmHg 59%
    12:00 +15°C° 0 mm 4 mps 762 mmHg 58%
    13:00 +17°C° 0 mm 4 mps 761 mmHg 56%
    14:00 +17°C° 0 mm 3 mps 761 mmHg 59%
    15:00 +17°C° 0 mm 3 mps 761 mmHg 62%
    16:00 +17°C° 0 mm 2 mps 760 mmHg 65%
    17:00 +16°C° 0 mm 2 mps 760 mmHg 68%
    18:00 +15°C° 0 mm 2 mps 760 mmHg 71%
    19:00 +15°C° 0 mm 2 mps 760 mmHg 74%
    20:00 +13°C° 0 mm 3 mps 760 mmHg 77%
    21:00 +13°C° 0 mm 3 mps 760 mmHg 79%
    22:00 +12°C° 0 mm 3 mps 760 mmHg 82%
    23:00 +12°C° 0 mm 3 mps 760 mmHg 83%

    27 October, Friday

    Time Temperature Precipitation Wind Pressure Humidity
    00:00 +12°C° 0 mm 3 mps 759 mmHg 85%
    01:00 +12°C° 0 mm 3 mps 759 mmHg 86%
    02:00 +12°C° 0 mm 3 mps 759 mmHg 86%
    03:00 +12°C° 0 mm 3 mps 758 mmHg 85%
    04:00 +12°C° 0 mm 3 mps 758 mmHg 84%
    05:00 +11°C° 0 mm 3 mps 758 mmHg 84%
    06:00 +11°C° 0 mm 3 mps 758 mmHg 84%
    07:00 +11°C° 0 mm 3 mps 758 mmHg 85%
    08:00 +13°C° 0 mm 3 mps 757 mmHg 78%
    09:00 +14°C° 0 mm 4 mps 757 mmHg 72%
    10:00 +17°C° 0 mm 4 mps 757 mmHg 65%
    11:00 +18°C° 0 mm 4 mps 756 mmHg 61%
    12:00 +19°C° 0 mm 4 mps 756 mmHg 58%
    13:00 +20°C° 0 mm 4 mps 755 mmHg 54%
    14:00 +19°C° 0 mm 3 mps 754 mmHg 56%
    15:00 +19°C° 0 mm 3 mps 754 mmHg 58%
    16:00 +18°C° 0 mm 2 mps 753 mmHg 61%
    17:00 +17°C° 0 mm 3 mps 752 mmHg 63%
    18:00 +17°C° 0 mm 3 mps 752 mmHg 65%
    19:00 +16°C° 0 mm 3 mps 751 mmHg 67%
    20:00 +15°C° 0 mm 4 mps 751 mmHg 66%
    21:00 +14°C° 0 mm 4 mps 750 mmHg 65%
    22:00 +14°C° 0 mm 5 mps 749 mmHg 65%
    23:00 +14°C° 0.4 mm 5 mps 749 mmHg 67%
    Show more